カタログに戻る

NOAA 16 DEB

運用中SSO
NORAD 42376·DEBRIS·🇺🇸 United States

打ち上げ Sep 21, 2000 から Vandenberg Space Force Base

Loading…

次のパス (今後24時間)

TLE

経年Source: Space-Track

元期: Sep 10, 2026, 01:41 UTC

1 42376U 00055RU  26253.07060169  .00005144  00000-0  22853-2 0  9995
2 42376  98.7525 200.2158 0077026 258.0351 101.2184 14.21819936540532

AllMySatでNOAA 16 DEBをリアルタイム追跡

Download on the App Store